sat.trackr.live / text

‹ back to catalog

STARLINK-2226

NORAD 48010 · 2021-024AK

PAYLOAD ACTIVE UNKNOWN

§ Identity

Operator
Country
US
Launch date
2021-03-24
Launch site
AFETR
Launch vehicle
Mass (kg)
RCS (m²)

Purposes: comms

External: N2YO · Heavens-Above · Gunter

§ Orbital elements

Epoch: 2026-09-13T01:10:22.035360Z

Period
94.01 min
Inclination
53.1598°
Eccentricity
0.0001567
Mean motion
15.31706344 rev/d
Perigee alt
469.6 km
Apogee alt
471.8 km
Semi-major
6,848.9 km
B*
-8.8080e-5
RAAN
180.7503°
Arg perigee
79.0912°
Mean anomaly
281.0266°
Rev number
30,327

§ Raw data

STARLINK-22261 48010U 21024AK  26256.04886615 -.00003098  00000+0 -88080-4 0  99902 48010  53.1598 180.7503 0001567  79.0912 281.0266 15.31706344303271

JSON: /api/v1/satellites/48010 · /tle

For live sub-satellite position, see the globe view (requires WebGL).

§ Visibility from observer

Set your observer location to see the next 7 days of passes ≥ 10°. The values pass through the URL so the page stays shareable.

No JS? Fill the form by hand. The geolocation button needs JavaScript.